Time,TemperatureF,DewpointF,PressureIn,WindDirection,WindDirectionDegrees,WindSpeedMPH,WindSpeedGustMPH,Humidity,HourlyPrecipIn,Conditions,Clouds,dailyrainin,SoftwareType,DateUTC
2013-08-26 00:07:00,63.8,59.0,30.19,ENE,70,0.0,0.0,85,0.00,,,0.00,weatherlink.com 1.10,2013-08-26 04:07:00,
2013-08-26 00:22:00,63.8,59.0,30.18,ENE,68,0.0,0.0,85,0.00,,,0.00,weatherlink.com 1.10,2013-08-26 04:22:00,
2013-08-26 00:37:00,64.1,59.0,30.18,ENE,70,0.0,0.0,84,0.00,,,0.00,weatherlink.com 1.10,2013-08-26 04:37:00,
2013-08-26 00:52:00,64.2,59.0,30.18,ENE,68,0.0,0.0,83,0.00,,,0.00,weatherlink.com 1.10,2013-08-26 04:52:00,
2013-08-26 01:07:00,64.4,59.0,30.19,ENE,69,0.0,0.0,83,0.00,,,0.00,weatherlink.com 1.10,2013-08-26 05:07:00,
2013-08-26 01:22:00,64.7,59.0,30.19,ENE,69,0.0,0.0,82,0.00,,,0.00,weatherlink.com 1.10,2013-08-26 05:22:00,
2013-08-26 01:37:00,64.6,59.0,30.18,ENE,70,0.0,0.0,83,0.00,,,0.00,weatherlink.com 1.10,2013-08-26 05:37:00,
2013-08-26 01:52:00,64.6,59.0,30.16,WSW,257,0.0,1.0,82,0.00,,,0.00,weatherlink.com 1.10,2013-08-26 05:52:00,
2013-08-26 02:07:00,65.0,59.0,30.15,North,5,0.0,0.0,81,0.00,,,0.00,weatherlink.com 1.10,2013-08-26 06:07:00,
2013-08-26 02:22:00,65.4,59.0,30.14,NNW,347,0.0,2.0,80,0.00,,,0.00,weatherlink.com 1.10,2013-08-26 06:22:00,
2013-08-26 02:37:00,66.0,59.0,30.14,NW,318,0.0,1.0,78,0.00,,,0.00,weatherlink.com 1.10,2013-08-26 06:37:00,
2013-08-26 02:52:00,66.0,59.0,30.14,NE,53,0.0,0.0,78,0.00,,,0.00,weatherlink.com 1.10,2013-08-26 06:52:00,
2013-08-26 03:08:00,65.9,59.0,30.14,ENE,63,0.0,1.0,77,0.00,,,0.00,weatherlink.com 1.10,2013-08-26 07:08:00,
2013-08-26 03:22:00,65.8,59.0,30.13,ENE,59,0.0,0.0,79,0.00,,,0.00,weatherlink.com 1.10,2013-08-26 07:22:00,
2013-08-26 03:37:00,65.0,59.0,30.13,NW,314,0.0,1.0,80,0.00,,,0.00,weatherlink.com 1.10,2013-08-26 07:37:00,
2013-08-26 03:52:00,64.5,59.0,30.13,NE,34,0.0,0.0,83,0.00,,,0.00,weatherlink.com 1.10,2013-08-26 07:52:00,
2013-08-26 04:07:00,64.2,59.0,30.13,NE,37,0.0,0.0,84,0.00,,,0.00,weatherlink.com 1.10,2013-08-26 08:07:00,
2013-08-26 04:22:00,63.5,59.0,30.14,NE,37,0.0,0.0,86,0.00,,,0.00,weatherlink.com 1.10,2013-08-26 08:22:00,
2013-08-26 04:38:00,63.0,60.0,30.14,NE,37,0.0,0.0,89,0.00,,,0.00,weatherlink.com 1.10,2013-08-26 08:38:00,
2013-08-26 04:53:00,62.7,60.0,30.14,NE,37,0.0,0.0,90,0.00,,,0.00,weatherlink.com 1.10,2013-08-26 08:53:00,
2013-08-26 05:08:00,62.5,60.0,30.14,NE,37,0.0,0.0,91,0.01,,,0.01,weatherlink.com 1.10,2013-08-26 09:08:00,
2013-08-26 05:23:00,62.2,60.0,30.14,NE,37,0.0,0.0,92,0.01,,,0.01,weatherlink.com 1.10,2013-08-26 09:23:00,
2013-08-26 05:38:00,62.2,60.0,30.13,ENE,59,0.0,1.0,92,0.01,,,0.01,weatherlink.com 1.10,2013-08-26 09:38:00,
2013-08-26 05:53:00,62.2,60.0,30.14,ENE,60,0.0,0.0,93,0.02,,,0.02,weatherlink.com 1.10,2013-08-26 09:53:00,
2013-08-26 06:08:00,62.2,60.0,30.14,ENE,59,0.0,0.0,93,0.01,,,0.02,weatherlink.com 1.10,2013-08-26 10:08:00,
2013-08-26 06:23:00,62.2,61.0,30.14,ENE,59,0.0,0.0,94,0.02,,,0.03,weatherlink.com 1.10,2013-08-26 10:23:00,
2013-08-26 06:38:00,62.0,60.0,30.14,ENE,60,0.0,0.0,94,0.03,,,0.04,weatherlink.com 1.10,2013-08-26 10:38:00,
2013-08-26 06:53:00,62.0,60.0,30.14,ENE,59,0.0,0.0,94,0.02,,,0.04,weatherlink.com 1.10,2013-08-26 10:53:00,
2013-08-26 07:08:00,61.9,61.0,30.13,ENE,60,0.0,0.0,95,0.02,,,0.04,weatherlink.com 1.10,2013-08-26 11:08:00,
2013-08-26 07:23:00,61.9,61.0,30.12,ENE,60,0.0,0.0,95,0.01,,,0.04,weatherlink.com 1.10,2013-08-26 11:23:00,
2013-08-26 07:38:00,61.9,61.0,30.11,West,277,0.0,1.0,95,0.00,,,0.04,weatherlink.com 1.10,2013-08-26 11:38:00,
2013-08-26 07:53:00,61.9,61.0,30.11,West,277,0.0,0.0,95,0.00,,,0.04,weatherlink.com 1.10,2013-08-26 11:53:00,
2013-08-26 08:08:00,62.1,61.0,30.10,ENE,68,0.0,1.0,95,0.00,,,0.04,weatherlink.com 1.10,2013-08-26 12:08:00,
2013-08-26 08:23:00,62.2,61.0,30.10,ENE,68,0.0,0.0,95,0.00,,,0.04,weatherlink.com 1.10,2013-08-26 12:23:00,
2013-08-26 08:38:00,62.4,61.0,30.09,East,80,0.0,1.0,95,0.00,,,0.04,weatherlink.com 1.10,2013-08-26 12:38:00,
2013-08-26 08:53:00,62.8,61.0,30.09,NE,47,0.0,1.0,95,0.00,,,0.04,weatherlink.com 1.10,2013-08-26 12:53:00,
2013-08-26 09:08:00,63.5,62.0,30.09,West,278,0.0,1.0,93,0.00,,,0.04,weatherlink.com 1.10,2013-08-26 13:08:00,
2013-08-26 09:23:00,64.5,63.0,30.08,West,280,0.0,0.0,93,0.00,,,0.04,weatherlink.com 1.10,2013-08-26 13:23:00,
2013-08-26 09:38:00,65.3,62.0,30.09,ENE,74,0.0,2.0,90,0.00,,,0.04,weatherlink.com 1.10,2013-08-26 13:38:00,
2013-08-26 09:53:00,65.8,63.0,30.08,WNW,300,0.0,1.0,89,0.00,,,0.04,weatherlink.com 1.10,2013-08-26 13:53:00,
2013-08-26 10:08:00,66.0,63.0,30.09,ENE,58,0.0,1.0,89,0.00,,,0.04,weatherlink.com 1.10,2013-08-26 14:08:00,
2013-08-26 10:23:00,66.4,63.0,30.08,East,91,0.0,1.0,89,0.00,,,0.04,weatherlink.com 1.10,2013-08-26 14:23:00,
2013-08-26 10:38:00,67.4,64.0,30.07,East,92,0.0,1.0,89,0.00,,,0.04,weatherlink.com 1.10,2013-08-26 14:38:00,
2013-08-26 10:53:00,68.4,65.0,30.07,NNW,330,0.0,0.0,88,0.00,,,0.04,weatherlink.com 1.10,2013-08-26 14:53:00,
2013-08-26 11:08:00,69.3,65.0,30.06,NE,39,0.0,1.0,87,0.00,,,0.04,weatherlink.com 1.10,2013-08-26 15:08:00,
2013-08-26 11:23:00,70.7,65.0,30.05,SE,134,0.0,2.0,83,0.00,,,0.04,weatherlink.com 1.10,2013-08-26 15:23:00,
2013-08-26 11:38:00,70.9,65.0,30.05,ENE,70,1.0,3.0,82,0.00,,,0.04,weatherlink.com 1.10,2013-08-26 15:38:00,
2013-08-26 11:53:00,70.9,66.0,30.05,ENE,69,0.0,1.0,83,0.00,,,0.04,weatherlink.com 1.10,2013-08-26 15:53:00,
2013-08-26 12:08:00,70.3,65.0,30.03,NW,305,0.0,2.0,83,0.00,,,0.04,weatherlink.com 1.10,2013-08-26 16:08:00,
2013-08-26 12:23:00,69.4,65.0,30.03,ESE,117,0.0,0.0,87,0.00,,,0.04,weatherlink.com 1.10,2013-08-26 16:23:00,
2013-08-26 12:38:00,68.6,65.0,30.02,ESE,117,0.0,1.0,88,0.01,,,0.05,weatherlink.com 1.10,2013-08-26 16:38:00,
2013-08-26 12:53:00,68.1,65.0,30.02,WSW,248,0.0,1.0,89,0.01,,,0.05,weatherlink.com 1.10,2013-08-26 16:53:00,
2013-08-26 13:08:00,67.9,65.0,30.02,WSW,239,0.0,1.0,91,0.02,,,0.06,weatherlink.com 1.10,2013-08-26 17:08:00,
2013-08-26 13:24:00,67.9,65.0,30.01,NE,43,0.0,1.0,91,0.02,,,0.06,weatherlink.com 1.10,2013-08-26 17:24:00,
2013-08-26 13:39:00,67.7,65.0,30.01,WSW,256,0.0,1.0,92,0.04,,,0.09,weatherlink.com 1.10,2013-08-26 17:39:00,
2013-08-26 13:54:00,68.0,66.0,30.00,ENE,69,0.0,1.0,93,0.04,,,0.09,weatherlink.com 1.10,2013-08-26 17:54:00,
2013-08-26 14:09:00,68.8,67.0,29.99,North,9,0.0,1.0,94,0.03,,,0.09,weatherlink.com 1.10,2013-08-26 18:09:00,
2013-08-26 14:24:00,71.2,69.0,29.99,WSW,242,0.0,2.0,91,0.02,,,0.09,weatherlink.com 1.10,2013-08-26 18:24:00,
2013-08-26 14:39:00,73.0,69.0,29.98,ENE,78,0.0,1.0,87,0.00,,,0.09,weatherlink.com 1.10,2013-08-26 18:39:00,
2013-08-26 14:54:00,73.8,69.0,29.98,East,97,1.0,3.0,84,0.00,,,0.09,weatherlink.com 1.10,2013-08-26 18:54:00,
2013-08-26 15:09:00,73.9,70.0,29.98,East,95,0.0,2.0,86,0.00,,,0.09,weatherlink.com 1.10,2013-08-26 19:09:00,
2013-08-26 15:24:00,74.2,69.0,29.97,East,95,0.0,0.0,84,0.00,,,0.09,weatherlink.com 1.10,2013-08-26 19:24:00,
2013-08-26 15:39:00,74.8,71.0,29.96,East,94,0.0,0.0,87,0.00,,,0.09,weatherlink.com 1.10,2013-08-26 19:39:00,
2013-08-26 15:54:00,74.7,71.0,29.95,East,95,0.0,0.0,88,0.00,,,0.09,weatherlink.com 1.10,2013-08-26 19:54:00,
2013-08-26 16:09:00,74.8,70.0,29.95,East,91,0.0,1.0,86,0.00,,,0.09,weatherlink.com 1.10,2013-08-26 20:09:00,
2013-08-26 16:24:00,74.6,71.0,29.95,East,91,0.0,0.0,88,0.00,,,0.09,weatherlink.com 1.10,2013-08-26 20:24:00,
2013-08-26 16:39:00,74.1,71.0,29.94,East,90,0.0,0.0,90,0.00,,,0.09,weatherlink.com 1.10,2013-08-26 20:39:00,
2013-08-26 16:54:00,74.0,71.0,29.94,East,90,0.0,0.0,91,0.00,,,0.09,weatherlink.com 1.10,2013-08-26 20:54:00,
2013-08-26 17:09:00,73.9,71.0,29.94,East,91,0.0,0.0,91,0.01,,,0.10,weatherlink.com 1.10,2013-08-26 21:09:00,
2013-08-26 17:24:00,73.5,71.0,29.94,East,91,0.0,0.0,92,0.02,,,0.11,weatherlink.com 1.10,2013-08-26 21:24:00,
2013-08-26 17:39:00,73.2,71.0,29.94,East,91,0.0,0.0,93,0.02,,,0.11,weatherlink.com 1.10,2013-08-26 21:39:00,
2013-08-26 17:54:00,73.0,71.0,29.93,East,90,0.0,0.0,93,0.02,,,0.11,weatherlink.com 1.10,2013-08-26 21:54:00,
2013-08-26 18:09:00,72.8,71.0,29.93,East,91,0.0,0.0,93,0.02,,,0.12,weatherlink.com 1.10,2013-08-26 22:09:00,
2013-08-26 18:24:00,72.6,71.0,29.93,East,90,0.0,0.0,93,0.01,,,0.12,weatherlink.com 1.10,2013-08-26 22:24:00,
2013-08-26 18:39:00,72.3,71.0,29.93,East,91,0.0,0.0,94,0.01,,,0.12,weatherlink.com 1.10,2013-08-26 22:39:00,
2013-08-26 18:54:00,72.0,70.0,29.92,East,92,0.0,0.0,94,0.01,,,0.12,weatherlink.com 1.10,2013-08-26 22:54:00,
2013-08-26 19:09:00,71.8,70.0,29.93,East,91,0.0,0.0,95,0.00,,,0.12,weatherlink.com 1.10,2013-08-26 23:09:00,
2013-08-26 19:24:00,71.5,70.0,29.92,East,91,0.0,0.0,95,0.00,,,0.12,weatherlink.com 1.10,2013-08-26 23:24:00,
2013-08-26 19:39:00,71.4,70.0,29.92,East,90,0.0,0.0,95,0.00,,,0.12,weatherlink.com 1.10,2013-08-26 23:39:00,
2013-08-26 19:54:00,71.1,70.0,29.92,East,91,0.0,0.0,95,0.01,,,0.13,weatherlink.com 1.10,2013-08-26 23:54:00,
2013-08-26 20:09:00,71.0,70.0,29.92,East,92,0.0,0.0,95,0.01,,,0.13,weatherlink.com 1.10,2013-08-27 00:09:00,
2013-08-26 20:24:00,70.8,70.0,29.92,East,92,0.0,0.0,96,0.02,,,0.14,weatherlink.com 1.10,2013-08-27 00:24:00,
2013-08-26 20:39:00,70.7,70.0,29.92,East,92,0.0,0.0,96,0.06,,,0.18,weatherlink.com 1.10,2013-08-27 00:39:00,
2013-08-26 20:54:00,70.7,70.0,29.93,East,91,0.0,0.0,96,0.11,,,0.24,weatherlink.com 1.10,2013-08-27 00:54:00,
2013-08-26 21:09:00,70.7,70.0,29.92,East,92,0.0,0.0,96,0.14,,,0.27,weatherlink.com 1.10,2013-08-27 01:09:00,
2013-08-26 21:24:00,70.6,70.0,29.92,NNW,345,0.0,1.0,96,0.14,,,0.28,weatherlink.com 1.10,2013-08-27 01:24:00,
2013-08-26 21:39:00,70.5,69.0,29.91,NE,47,0.0,0.0,96,0.10,,,0.29,weatherlink.com 1.10,2013-08-27 01:39:00,
2013-08-26 21:54:00,70.4,69.0,29.91,East,83,0.0,0.0,96,0.05,,,0.29,weatherlink.com 1.10,2013-08-27 01:54:00,
2013-08-26 22:09:00,70.1,69.0,29.91,ENE,68,0.0,2.0,96,0.03,,,0.30,weatherlink.com 1.10,2013-08-27 02:09:00,
2013-08-26 22:24:00,69.7,69.0,29.90,North,360,0.0,0.0,96,0.02,,,0.30,weatherlink.com 1.10,2013-08-27 02:24:00,
2013-08-26 22:39:00,69.4,68.0,29.90,North,360,0.0,0.0,96,0.03,,,0.32,weatherlink.com 1.10,2013-08-27 02:39:00,
2013-08-26 22:54:00,69.2,68.0,29.90,NNW,347,0.0,2.0,96,0.04,,,0.33,weatherlink.com 1.10,2013-08-27 02:54:00,
2013-08-26 23:09:00,68.9,68.0,29.89,NNW,347,0.0,0.0,96,0.07,,,0.37,weatherlink.com 1.10,2013-08-27 03:09:00,
2013-08-26 23:24:00,68.7,68.0,29.89,NW,307,0.0,1.0,96,0.14,,,0.44,weatherlink.com 1.10,2013-08-27 03:24:00,
2013-08-26 23:40:00,68.6,68.0,29.88,NW,307,0.0,0.0,96,0.19,,,0.51,weatherlink.com 1.10,2013-08-27 03:40:00,
2013-08-26 23:55:00,68.5,67.0,29.89,East,84,0.0,1.0,96,0.30,,,0.63,weatherlink.com 1.10,2013-08-27 03:55:00,